Location: Usti nad Orlici
(49.9830°N, 16.4000°E)
Time: 03:42:26
(UTC+01:00)

ISS - Visible Passes

Search period start: 16 January 2026 00:00
Search period end: 26 January 2026 00:00
Orbit: 413 x 424 km, 51.6° (Epoch: 15 January)

Date Brightness Start Highest point End Pass type
(mag) Time Alt. Az. Time Alt. Az. Time Alt. Az.
16 Jan -3.4 17:51:16 10° SW 17:54:30 50° SSE 17:55:51 29° E visible
16 Jan -0.8 19:27:56 10° W 19:28:48 17° W 19:28:48 17° W visible
17 Jan -2.7 17:03:45 10° SW 17:06:50 35° SSE 17:09:55 10° E visible
17 Jan -3.4 18:40:08 10° W 18:43:02 62° WNW 18:43:02 62° WNW visible
18 Jan -3.8 17:52:20 10° WSW 17:55:41 88° SSE 17:57:12 30° ENE visible
18 Jan -0.8 19:29:16 10° W 19:30:09 17° WNW 19:30:09 17° WNW visible
19 Jan -3.6 17:04:35 10° WSW 17:07:53 68° SSE 17:11:13 10° ENE visible
19 Jan -3.3 18:41:26 10° W 18:44:18 55° NW 18:44:18 55° NW visible
20 Jan -3.7 17:53:33 10° W 17:56:54 67° N 17:58:27 29° ENE visible
20 Jan -0.8 19:30:29 10° WNW 19:31:23 17° WNW 19:31:23 17° WNW visible
21 Jan -3.7 17:05:41 10° W 17:09:01 77° NNW 17:12:23 10° ENE visible
21 Jan -3.4 18:42:38 10° WNW 18:45:31 58° NW 18:45:31 58° NW visible
22 Jan -3.7 17:54:45 10° W 17:58:05 63° N 17:59:40 28° ENE visible
22 Jan -0.9 19:31:36 10° WNW 19:32:36 18° WNW 19:32:36 18° WNW visible
23 Jan -3.6 17:06:50 10° W 17:10:09 63° N 17:13:29 10° E visible
23 Jan -3.6 18:43:43 10° WNW 18:46:47 72° W 18:46:47 72° W visible
24 Jan -3.8 17:55:49 10° WNW 17:59:10 78° NNE 18:01:00 25° E visible
24 Jan -1.0 19:32:43 10° W 19:33:57 19° W 19:33:57 19° W visible
25 Jan -3.7 17:07:54 10° WNW 17:11:14 68° N 17:14:35 10° E visible
25 Jan -3.1 18:44:44 10° WNW 18:47:59 48° SSW 18:48:14 47° S visible
